Location: Unspecified
(0.0000°N, 0.0000°E)
Time: 11:11:26
(UTC+00:00)

N. Korean satellite - Pass Details

Date: 26 May 2020
Orbit: 455 x 505 km, 97.2° (Epoch: 30 May)

Event Time Altitude Azimuth Distance (km) Brightness Sun altitude
Rises 05:11:53 0° 13° (NNE) 2,585 10.8 -10.5°
Reaches altitude 10° 05:13:58 10° 15° (NNE) 1,702 9.9 -10.0°
Maximum altitude 05:17:38 76° 101° (E) 517 6.8 -9.2°
Drops below altitude 10° 05:21:17 10° 187° (S) 1,694 9.0 -8.3°
Sets 05:23:21 0° 188° (S) 2,572 9.9 -7.9°
